Weather in Khokhloma

Russia / Nizhny Novgorod Oblast'     56°58′31″N   43°54′08″E
temp.,
°C
wind,
m/s
gust,
m/s
humid.,
%
clouds,
%
prec.,
mm/h
press.,
hPa
HPBL,
m
20 september, mon
mon2000:00+2ene398255 0.0 1027236
03:00+2ene41179100 0.0 1027385
06:00+1e41180100 0.0 1027396
09:00+4e51165100 0.0 1027582
12:00+8e5752100 0.0 10271010
15:00+9e574799 0.0 10261181
18:00+6e4105491 0.0 1026665
21:00+4e41262100 0.0 1026537
21 september, tue
tue2100:00+4e41363100 0.0 1026489
03:00+3e41266100 0.0 1025422
06:00+2e51370100 0.0 1024442
09:00+6e51259100 0.0 1023574
12:00+9e5105198 0.0 1022953
15:00+8e51061100 0.0 10211100
18:00+8e51160100 0.1 10201056
21:00+8e51156100 0.1 1020865
22 september, wed
wed2200:00+8e51256100 0.0 1018641
03:00+7e51360100 0.0 1018585
06:00+6e51464100 0.0 1017626
09:00+6e51576100 0.8 1017690
12:00+7e51380100 1.6 1017650
15:00+7e51383100 3.4 1016810
18:00+7e61388100 0.8 1016918
21:00+8e51192100 0.9 1016600
23 september, thu
thu2300:00+8e41095100 0.4 1016466
03:00+8ese41195100 2.2 1015556
06:00+8se5990100 0.3 1016628
09:00+9sse3890100 0.3 1016527
12:00+11s477498 0.1 10161031
15:00+11s386524 0.1 1016643
18:00+10se247081 0.0 101575
21:00+8se388397 0.0 1015213
24 september, fri
fri2400:00+6ese2892100 0.0 1013189
03:00+9ese41097100 0.1 1011538
06:00+9se51196100 0.3 1010639
09:00+8sse51196100 1.3 1009750
12:00+8s3990100 0.5 1010720
15:00+10sse4680100 0.6 1008874
18:00+8se3894100 0.1 1008426
21:00+8sse3797100 0.3 1006533